Location: Newark
(52.2583°N, 7.1190°W)
Time: 04:31:13
(UTC+00:00)

Tiros 1 - All Passes

Search period start: 19 November 2019 00:00
Search period end: 29 November 2019 00:00
Orbit: 630 x 664 km, 48.4° (Epoch: 18 November)

Date Brightness Start Highest point End Pass type
(mag) Time Alt. Az. Time Alt. Az. Time Alt. Az.
19 Nov - 13:40:12 10° SSE 13:41:09 11° SE 13:42:08 10° SE daylight
19 Nov - 15:18:14 10° SW 15:22:19 32° SSE 15:26:25 10° E daylight
19 Nov - 16:59:31 10° WSW 17:04:01 53° S 17:08:33 10° E visible
19 Nov - 18:41:27 10° W 18:45:51 43° SSW 18:50:17 10° SE visible
19 Nov - 20:24:02 10° W 20:27:19 19° SW 20:30:37 10° S visible
20 Nov - 14:03:23 10° S 14:06:39 19° SE 14:09:57 10° E daylight
20 Nov - 15:43:44 10° SW 15:48:07 44° SSE 15:52:32 10° E daylight
20 Nov - 17:25:27 10° W 17:29:57 53° S 17:34:29 10° ESE visible
20 Nov - 19:07:34 10° W 19:11:40 31° SSW 19:15:46 10° SE visible
20 Nov - 20:51:59 10° SW 20:52:49 10° SW 20:53:39 10° SSW visible
21 Nov - 14:28:17 10° SW 14:32:19 30° SSE 14:36:22 10° E daylight
21 Nov - 16:09:31 10° WSW 16:14:01 52° S 16:18:32 10° E daylight
21 Nov - 17:51:26 10° W 17:55:51 44° SSW 18:00:17 10° ESE visible
21 Nov - 19:33:57 10° W 19:37:20 20° SSW 19:40:44 10° SSE visible
22 Nov - 13:13:32 10° S 13:16:41 18° SE 13:19:51 10° ESE daylight
22 Nov - 14:53:45 10° SW 14:58:07 42° SSE 15:02:30 10° E daylight
22 Nov - 16:35:26 10° W 16:39:56 53° S 16:44:28 10° ESE daylight
22 Nov - 18:17:32 10° W 18:21:40 32° SSW 18:25:49 10° SE visible
22 Nov - 20:01:29 10° WSW 20:02:51 11° SW 20:04:14 10° SSW visible
23 Nov - 13:38:21 10° SSW 13:42:20 29° SSE 13:46:19 10° E daylight
23 Nov - 15:19:31 10° WSW 15:24:00 52° S 15:28:30 10° E daylight
23 Nov - 17:01:25 10° W 17:05:51 45° SSW 17:10:17 10° ESE visible
23 Nov - 18:43:52 10° W 18:47:21 21° SSW 18:50:51 10° SSE visible
24 Nov - 12:23:41 10° S 12:26:42 17° SE 12:29:44 10° ESE daylight
24 Nov - 14:03:46 10° SW 14:08:07 41° SSE 14:12:28 10° E daylight
24 Nov - 15:45:25 10° W 15:49:56 53° S 15:54:27 10° ESE daylight
24 Nov - 17:27:30 10° W 17:31:40 34° SSW 17:35:51 10° SE visible
24 Nov - 19:11:08 10° WSW 19:12:53 12° SW 19:14:38 10° SSW visible
25 Nov - 12:48:25 10° SSW 12:52:20 28° SSE 12:56:16 10° E daylight
25 Nov - 14:29:30 10° WSW 14:34:00 51° S 14:38:29 10° E daylight
25 Nov - 16:11:24 10° W 16:15:50 46° SSW 16:20:17 10° ESE daylight
25 Nov - 17:53:48 10° W 17:57:22 22° SSW 18:00:56 10° SSE visible
26 Nov - 11:33:52 10° S 11:36:45 16° SE 11:39:37 10° ESE daylight
26 Nov - 13:13:48 10° SW 13:18:06 40° SSE 13:22:26 10° E daylight
26 Nov - 14:55:25 10° WSW 14:59:55 54° S 15:04:26 10° ESE daylight
26 Nov - 16:37:28 10° W 16:41:40 35° SSW 16:45:53 10° SE daylight
26 Nov - 18:20:52 10° WSW 18:22:55 13° SW 18:24:58 10° SSW visible
27 Nov - 11:58:29 10° SSW 12:02:21 27° SSE 12:06:13 10° E daylight
27 Nov - 13:39:30 10° WSW 13:43:59 50° S 13:48:28 10° E daylight
27 Nov - 15:21:23 10° W 15:25:50 47° SSW 15:30:17 10° ESE daylight
27 Nov - 17:03:44 10° W 17:07:23 23° SSW 17:11:02 10° SSE visible
28 Nov - 10:44:03 10° S 10:46:46 15° SE 10:49:28 10° ESE daylight
28 Nov - 12:23:49 10° SW 12:28:06 39° SSE 12:32:24 10° E daylight
28 Nov - 14:05:24 10° WSW 14:09:54 54° S 14:14:25 10° ESE daylight
28 Nov - 15:47:26 10° W 15:51:40 36° SSW 15:55:55 10° SE daylight
28 Nov - 17:30:40 10° WSW 17:32:57 14° SW 17:35:15 10° S visible
